694  
ASUS41 KBGM 180110  
RWRBGM  
 
REGIONAL WEATHER ROUNDUP  
NATIONAL WEATHER SERVICE BINGHAMTON NY  
800 PM EST SUN DEC 17 2017  
 
NOTE: "FAIR" INDICATES FEW OR NO CLOUDS BELOW 12,000 FEET WITH NO  
SIGNIFICANT WEATHER AND/OR S TO VISIBILITY
.  
 
* = STATION(S) THAT DOES NOT REPORT PRECIPITATION, SUCH AS RAIN,  
SNOW, ETC, ALSO NO THUNDER OR FOG.
 
 
NYZ009-015>018-022>025-036-037-044>046-055>057-062-180200   
..CENTRAL NEW YORK
 
 
 
CITY SKY/WX TMP DP RH WIND PRES REMARKS
 
BINGHAMTON LGT SNOW 22 18 85 SE5 30.13S FOG WCI 16  
CORTLAND MOCLDY 23 19 86 CALM 30.16F  
DANSVILLE CLOUDY 23 18 81 CALM 30.14F  
ELMIRA PTCLDY 28 21 75 NE5 30.16F WCI 23  
SENECA FALLS CLOUDY 23 16 74 CALM 30.20S  
ITHACA LGT SNOW 25 18 74 SE3 30.16F  
HORNELL PTCLDY 27 21 80 SE6 30.15F WCI 20  
MONTICELLO FLURRIES 25 21 85 SE5 30.19S WCI 19  
PENN YAN LGT SNOW 23 17 78 S3 30.16F  
ROME CLOUDY 18 13 80 E6 30.24F WCI 10  
SIDNEY MOCLDY 23 19 86 CALM 30.18F  
SYRACUSE CLOUDY 20 14 77 E7 30.20F WCI 11  

 
 
PAZ038>040-043-044-047-048-072-180200   
..NORTHEAST PENNSYLVANIA
 
 
 
CITY SKY/WX TMP DP RH WIND PRES REMARKS
 
HAZLETON MOCLDY 32 27 80 SE3 30.17F  
SCRANTON CLOUDY 30 25 81 CALM 30.18F  

 

 
KEY  
WCI = WIND CHILL INDEX  
VSB = VISIBILITY  
HX = HEAT INDEX  

 
 
 
CLICK HERE TO GO TO PREVIOUS BULLETINS.

The Nexlab NY Page
The Nexlab PA Page Main Text Page